Location: Trois-Rivi�res
(46.3500°N, 72.5500°W)
Time: 11:08:03
(UTC-05:00)

Tiangong 1 - Pass Details

Date: 15 October 2017
Orbit: 275 x 302 km, 42.8° (Epoch: 14 December)

Event Time Altitude Azimuth Distance (km) Brightness Sun altitude
Rises 18:30:00 0° 268° (W) 2,103 7.5 -5.4°
Reaches altitude 10° 18:32:14 10° 254° (WSW) 1,254 5.4 -5.8°
Maximum altitude 18:34:34 24° 198° (SSW) 737 2.8 -6.2°
Drops below altitude 10° 18:36:51 10° 141° (SE) 1,223 3.3 -6.6°
Enters shadow 18:38:21 - 129° (SE) 1,780 4.0 -6.8°
